This demonstration page uses our WeatherBlox Daily Observations layout. Learn more.

Left ArrowRight Arrow

34.16533, -84.80231

Hourly Observations for October 10, 2019

Temp ( °F °C ) Dew Point ( °F °C ) Humidity (%) Winds ( mph kmh ) Pressure ( in mb ) Visibility ( mi km ) Precip ( " mm )
12:53 am 00:53 Clear 63 17.2 59 15 87 87 Calm 30.11 1020 10 16 0.00 0.00
1:53 am 01:53 Mostly Cloudy 64 17.8 60 15.6 87 87 Calm 30.11 1020 10 16 0.00 0.00
2:53 am 02:53 Clear 63 17.2 59 15 87 87 Calm 30.11 1020 10 16 0.00 0.00
3:53 am 03:53 Partly Cloudy 62 16.7 58 14.4 86 86 Calm 30.11 1020 10 16 0.00 0.00
4:53 am 04:53 Mostly Cloudy 63 17.2 59 15 87 87 VRB 3 6 30.12 1020 10 16 0.00 0.00
5:53 am 05:53 Clear 62 16.7 59 15 90 90 Calm 30.12 1020 10 16 0.00 0.00
6:53 am 06:53 Cloudy 62 16.7 59 15 90 90 Calm 30.14 1021 10 16 0.00 0.00
7:53 am 07:53 Partly Cloudy 62 16.7 59 15 90 90 Calm 30.16 1021 10 16 0.00 0.00
8:53 am 08:53 Partly Cloudy 64 17.8 60 15.6 87 87 SE 3 6 30.16 1021 10 16 0.00 0.00
9:53 am 09:53 Mostly Cloudy 69 20.6 60 15.6 73 73 E 6 9 30.16 1021 10 16 0.00 0.00
10:53 am 10:53 Sunny 73 22.8 60 15.6 64 64 E 9 15 30.17 1022 10 16 0.00 0.00
11:53 am 11:53 Partly Cloudy 75 23.9 60 15.6 60 60 ENE 13 20 30.17 1022 10 16 0.00 0.00
12:01 pm 12:01 Mostly Cloudy 72 22.2 59 15 64 64 ENE 10 17 30.19 1022 10 16 0.00 0.00
12:53 pm 12:53 Cloudy 73 22.8 59 15 62 62 E 8 13 30.19 1022 10 16 0.00 0.00
1:53 pm 13:53 Cloudy 71 21.7 59 15 66 66 ESE 9 15 30.16 1021 10 16 0.00 0.00
2:37 pm 14:37 Mostly Sunny 73 22.8 58 14.4 59 59 SE 8 13 30.14 1021 10 16 0.00 0.00
2:53 pm 14:53 Partly Cloudy 75 23.9 59 15 58 58 VRB 6 9 30.13 1020 10 16 0.00 0.00
3:53 pm 15:53 Sunny 76 24.4 59 15 56 56 SE 7 11 30.10 1019 10 16 0.00 0.00
4:53 pm 16:53 Sunny 78 25.6 59 15 52 52 E 6 9 30.08 1019 10 16 0.00 0.00
5:53 pm 17:53 Mostly Sunny 76 24.4 59 15 56 56 S 5 7 30.07 1018 10 16 0.00 0.00
6:53 pm 18:53 Sunny 74 23.3 58 14.4 57 57 Calm 30.07 1018 10 16 0.00 0.00
7:53 pm 19:53 Clear 67 19.4 59 15 76 76 Calm 30.07 1018 10 16 0.00 0.00
8:53 pm 20:53 Clear 63 17.2 58 14.4 84 84 Calm 30.07 1018 10 16 0.00 0.00
9:53 pm 21:53 Clear 62 16.7 58 14.4 86 86 Calm 30.09 1019 10 16 0.00 0.00
10:53 pm 22:53 Clear 61 16.1 58 14.4 90 90 Calm 30.11 1020 10 16 0.00 0.00
11:53 pm 23:53 Clear 60 15.6 57 13.9 90 90 Calm 30.11 1020 10 16 0.00 0.00

Powered by AerisWeather